[[{"header":{"parameterUnit":"m.s-1","parameterCategory":1,"la1":30.2991,"la2":30.254,"lo1":-89.0895,"lo2":-89.0444,"dy":0.0017,"dx":0.0017,"nx":28,"ny":28,"refTime":"2023-08-19T21:00:00:Z","depth":0,"parameterNumber":2,"parameterNumberName":"U-component_of_WINDS"},"data":[0,0,0,0,0,0,0,0,0,0,0,0,0,0,0,0,0,0,0,0,0,0,0,0,0,0,0,0,0,0,0,0,0,0,0,0,0,0,0,0,0,0,0,0,0,0,0,0,0,0,0,0,0,0,0,0,0,0,-3.7581,-3.758,0,-3.7529,-3.7529,-3.7528,-3.7435,-3.7433,-3.7431,-3.7429,-3.7379,-3.738,-3.738,0,0,0,0,0,0,0,0,0,0,0,0,0,-3.7605,-3.7605,-3.7581,-3.758,-3.7579,-3.7529,-3.7529,-3.7528,-3.7435,-3.7433,-3.7431,-3.7429,-3.7379,-3.738,-3.738,0,0,0,0,0,0,0,0,0,0,0,0,0,-3.7578,-3.7605,-3.7581,-3.7527,-3.7522,-3.7529,-3.7529,-3.7528,-3.7436,-3.7433,-3.743,-3.7428,-3.7379,-3.738,-3.738,-3.7437,0,0,-3.7382,-3.7382,0,0,0,0,0,0,0,0,-3.758,-3.7577,-3.7536,-3.7531,-3.7525,-3.7486,-3.7519,-3.7497,-3.7436,-3.7468,-3.7429,-3.7426,-3.7417,-3.7414,-3.7411,-3.7435,-3.7432,-3.7382,-3.7382,-3.7382,-3.7382,0,0,0,0,0,0,0,-3.7582,-3.7579,-3.756,-3.7535,-3.7529,-3.7508,-3.7501,-3.7514,-3.7459,-3.7465,-3.7458,-3.7454,-3.7414,-3.741,-3.7409,-3.7432,-3.7382,-3.7382,-3.7382,-3.7383,-3.7506,-3.7508,0,0,0,0,0,0,-3.7591,-3.7581,-3.7562,-3.7559,-3.7546,-3.7509,-3.7502,-3.7501,-3.7458,-3.7449,-3.7456,-3.7449,-3.7411,-3.7408,-3.7407,-3.7473,-3.7382,-3.7383,-3.7383,-3.7503,-3.7506,-3.7509,0,0,0,0,0,0,-3.7592,-3.759,-3.7564,-3.7568,-3.7563,-3.7512,-3.7512,-3.7501,-3.7498,-3.7451,-3.7441,-3.7462,-3.7409,-3.7406,-3.7431,-3.747,-3.7383,-3.7383,-3.7499,-3.7504,-3.7508,-3.7605,0,0,0,0,0,0,-3.7593,-3.7591,-3.761,-3.7569,-3.7563,-3.7588,-3.7514,-3.7502,-3.7499,-3.749,-3.7454,-3.7446,-3.7406,-3.7431,-3.7432,-3.7469,-3.7384,-3.7495,-3.7501,-3.7506,-3.7598,-3.7612,-3.7624,0,0,0,0,0,-3.7594,-3.7639,-3.7611,-3.7609,-3.7586,-3.759,-3.7587,-3.7539,-3.7502,-3.7522,-3.7493,-3.7447,-3.7466,-3.7434,-3.7434,-3.7472,-3.7493,-3.75,-3.7506,-3.7592,-3.7609,-3.7624,0,0,0,0,0,0,-3.7684,-3.7632,-3.7601,-3.7633,-3.7617,-3.7574,-3.7597,-3.7558,-3.7552,-3.7544,-3.7487,-3.748,-3.7514,-3.7496,-3.7461,-3.7528,-3.7473,-3.748,-3.7538,-3.7554,-3.7567,-3.757,-3.7384,0,0,0,0,0,-3.7708,-3.7714,-3.7669,-3.7702,-3.7696,-3.7649,-3.7648,-3.7614,-3.7595,-3.7587,-3.7559,-3.7544,-3.7547,-3.7549,-3.7549,-3.7596,-3.7589,-3.7623,-3.7636,-3.7647,-3.7653,-3.7681,-3.7696,-3.7531,-3.7531,-3.7531,0,0,-3.7757,-3.7729,-3.7736,-3.772,-3.7703,-3.7713,-3.7643,-3.7655,-3.7663,-3.7589,-3.7611,-3.7592,-3.7571,-3.7608,-3.7623,-3.7594,-3.7698,-3.7655,-3.7664,-3.7664,-3.7689,-3.7705,-3.7719,-3.7536,-3.7535,-3.7534,0,0,-3.7851,-3.783,-3.7856,-3.7842,-3.7818,-3.7787,-3.7795,-3.7759,-3.7743,-3.7765,-3.7711,-3.7721,-3.7726,-3.7714,-3.7709,-3.7807,-3.7765,-3.7809,-3.7876,-3.7904,-3.7917,-3.7928,-3.7965,-3.7978,-3.7816,-3.7816,-3.7816,0,-3.7914,-3.7925,-3.7875,-3.7892,-3.7888,-3.7824,-3.7853,-3.7842,-3.7819,-3.7819,-3.7787,-3.7796,-3.7777,-3.7813,-3.7837,-3.7835,-3.7843,-3.7811,-3.7919,-3.793,-3.7939,-3.7974,-3.7988,-3.7821,-3.7821,-3.782,-3.782,0,-3.8006,-3.8015,-3.804,-3.8021,-3.802,-3.8043,-3.8,-3.8005,-3.7974,-3.7948,-3.7974,-3.795,-3.7946,-3.7952,-3.792,-3.7985,-3.7968,-3.7929,-3.7871,-3.7961,-3.7993,-3.8005,-3.7829,-3.7827,-3.7826,-3.7824,0,0,-3.815,-3.8107,-3.8117,-3.811,-3.8082,-3.8089,-3.8112,-3.8107,-3.8115,-3.8104,-3.8123,-3.8132,-3.8097,-3.8091,-3.8058,-3.8083,-3.8165,-3.8041,-3.8039,-3.8065,-3.8239,-3.8268,-3.8284,-3.8139,-3.8141,-3.8143,-3.8241,0,-3.8238,-3.8271,-3.823,-3.8274,-3.8284,-3.8227,-3.8247,-3.8234,-3.8212,-3.8219,-3.8196,-3.8204,-3.8156,-3.8153,-3.8175,-3.815,-3.8199,-3.8143,-3.8158,-3.8159,-3.8163,-3.83,-3.833,-3.8423,-3.8253,-3.8255,-3.8256,0,-3.8342,-3.8338,-3.8383,-3.8356,-3.8359,-3.8377,-3.8373,-3.838,-3.8367,-3.8349,-3.8347,-3.8309,-3.8332,-3.8279,-3.8313,-3.8276,-3.828,-3.8271,-3.8273,-3.8271,-3.8212,-3.8303,-3.8451,-3.8466,-3.8275,-3.8273,-3.8272,0,-3.8445,-3.845,-3.8478,-3.8474,-3.8443,-3.8458,-3.8447,-3.843,-3.8432,-3.843,-3.8431,-3.8432,-3.8433,-3.8436,-3.8401,-3.8365,-3.844,-3.8383,-3.8428,-3.843,-3.8445,-3.8444,-3.8597,-3.8449,-3.8449,-3.8449,-3.8448,0,-3.8546,-3.8576,-3.8524,-3.8541,-3.8575,-3.8531,-3.8566,-3.8549,-3.8536,-3.8551,-3.8503,-3.8519,-3.8471,-3.8484,-3.8457,-3.8491,-3.8491,-3.848,-3.8472,-3.8484,-3.8486,-3.8485,-3.8477,-3.8452,-3.8452,-3.8451,-3.845,0,-3.8664,-3.863,-3.8658,-3.8629,-3.8623,-3.8649,-3.8625,-3.8642,-3.8619,-3.864,-3.8642,-3.8607,-3.862,-3.8586,-3.8593,-3.8575,-3.8625,-3.8606,-3.8629,-3.8623,-3.8671,-3.8667,-3.8828,-3.8848,-3.8688,-3.869,-3.8691,0,-3.873,-3.8753,-3.8727,-3.8734,-3.8725,-3.8737,-3.8739,-3.8699,-3.8704,-3.8693,-3.8713,-3.8721,-3.8725,-3.8749,-3.8725,-3.8732,-3.8714,-3.8771,-3.8715,-3.8727,-3.8716,-3.8715,-3.8719,-3.8781,-3.8783,-3.8785,-3.8786,0,-3.8852,-3.8836,-3.8841,-3.8843,-3.8848,-3.8847,-3.8842,-3.8852,-3.8808,-3.8818,-3.883,-3.8834,-3.8843,-3.8854,-3.8856,-3.8847,-3.8811,-3.8805,-3.8816,-3.8827,-3.8839,-3.8835,-3.866,-3.88,-3.8799,-3.8798,-3.8797,-3.8796,-3.8947,-3.8965,-3.8952,-3.8961,-3.8954,-3.8953,-3.8968,-3.8949,-3.8958,-3.8962,-3.8939,-3.8957,-3.8949,-3.8948,-3.8944,-3.896,-3.8934,-3.895,-3.8954,-3.8958,-3.8967,-3.8838,-3.896,-3.896,-3.8959,-3.8959,-3.8959,0,-3.9067,-3.9057,-3.9066,-3.9062,-3.9071,-3.9037,-3.9033,-3.9043,-3.9059,-3.9054,-3.906,-3.9078,-3.9089,-3.9069,-3.9078,-3.9095,-3.9079,-3.9099,-3.9097,-3.9096,-3.8988,-3.8978,-3.9112,-3.9112,-3.9112,-3.9112,-3.9112,-3.9112,-3.913,-3.9161,-3.9144,-3.9173,-3.9163,-3.918,-3.9181,-3.9181,-3.9177,-3.9198,-3.9208,-3.9195,-3.9185,-3.9194,-3.9205,-3.9199,-3.9205,-3.9231,-3.9219,-3.9118,-3.9103,-3.9089,-3.9079,-3.9232,-3.9232,-3.9326,-3.9327,-3.9327]},{"header":{"parameterUnit":"m.s-1","parameterCategory":1,"la1":30.2991,"la2":30.254,"lo1":-89.0895,"lo2":-89.0444,"dy":0.0017,"dx":0.0017,"nx":28,"ny":28,"refTime":"2023-08-19T21:00:00:Z","depth":0,"parameterNumber":3,"parameterNumberName":"V-component_of_WINDS"},"data":[0,0,0,0,0,0,0,0,0,0,0,0,0,0,0,0,0,0,0,0,0,0,0,0,0,0,0,0,0,0,0,0,0,0,0,0,0,0,0,0,0,0,0,0,0,0,0,0,0,0,0,0,0,0,0,0,0,0,2.1263,2.1262,0,2.1221,2.122,2.122,2.125,2.1251,2.1252,2.1254,2.1204,2.1202,2.1199,0,0,0,0,0,0,0,0,0,0,0,0,0,2.1364,2.1362,2.1263,2.1262,2.1262,2.1221,2.122,2.122,2.125,2.1251,2.1253,2.1254,2.1205,2.1202,2.1199,0,0,0,0,0,0,0,0,0,0,0,0,0,2.132,2.1361,2.1263,2.1272,2.1272,2.1221,2.122,2.122,2.1249,2.1251,2.1253,2.1255,2.1206,2.1202,2.1198,2.1134,0,0,2.1187,2.1185,0,0,0,0,0,0,0,0,2.1323,2.1317,2.1271,2.1271,2.1271,2.1243,2.1238,2.1191,2.1249,2.1258,2.1254,2.1256,2.1215,2.121,2.1198,2.1132,2.113,2.1186,2.1184,2.1182,2.1181,0,0,0,0,0,0,0,2.1326,2.1318,2.1246,2.127,2.127,2.1276,2.1272,2.1229,2.1225,2.1257,2.1259,2.1254,2.1215,2.1202,2.1197,2.1129,2.1186,2.1183,2.1181,2.1179,2.1008,2.1006,0,0,0,0,0,0,2.1329,2.1321,2.1247,2.1245,2.1303,2.1273,2.1269,2.125,2.1226,2.1224,2.1252,2.1256,2.1207,2.1201,2.1195,2.1118,2.1182,2.1179,2.1176,2.101,2.1008,2.1005,0,0,0,0,0,0,2.1331,2.1322,2.1249,2.1283,2.1275,2.1269,2.1248,2.1248,2.1234,2.1222,2.1221,2.1239,2.1209,2.1201,2.115,2.1116,2.1177,2.1173,2.1013,2.101,2.1006,2.0962,0,0,0,0,0,0,2.1333,2.1322,2.1299,2.1283,2.1273,2.1205,2.1246,2.1246,2.1228,2.1232,2.121,2.1208,2.121,2.1155,2.1146,2.1112,2.117,2.1016,2.1011,2.1008,2.0967,2.0958,2.0951,0,0,0,0,0,2.1337,2.1286,2.1297,2.1288,2.1243,2.1203,2.1197,2.1202,2.1225,2.1201,2.1194,2.1209,2.1123,2.115,2.1139,2.1104,2.1018,2.1013,2.1008,2.097,2.096,2.0951,0,0,0,0,0,0,2.1295,2.1284,2.1296,2.1239,2.1222,2.1208,2.1177,2.119,2.1164,2.1168,2.1174,2.1169,2.1115,2.1105,2.1135,2.1041,2.1074,2.1066,2.1049,2.1039,2.1031,2.1033,2.1167,0,0,0,0,0,2.128,2.125,2.1242,2.1192,2.1183,2.1182,2.1164,2.117,2.1152,2.1144,2.1133,2.1113,2.1081,2.106,2.103,2.0967,2.0962,2.0938,2.093,2.0923,2.0916,2.0881,2.087,2.0989,2.0989,2.0989,0,0,2.1247,2.1238,2.1218,2.1184,2.1171,2.1138,2.1175,2.1139,2.1114,2.1137,2.1089,2.108,2.1058,2.1001,2.0975,2.0991,2.0882,2.0917,2.0912,2.0908,2.0875,2.0863,2.0853,2.0985,2.0986,2.0987,0,0,2.117,2.116,2.1118,2.1106,2.1088,2.1087,2.1078,2.1062,2.1058,2.101,2.1027,2.0998,2.0944,2.0927,2.0912,2.0832,2.0844,2.0822,2.0778,2.0745,2.0735,2.0727,2.0697,2.0686,2.0816,2.0815,2.0815,0,2.113,2.1083,2.1094,2.1057,2.1041,2.1065,2.1021,2.1008,2.098,2.0967,2.0987,2.0921,2.0907,2.0846,2.0827,2.0815,2.0802,2.0823,2.0736,2.0728,2.072,2.0691,2.068,2.0813,2.0813,2.0813,2.0814,0,2.1035,2.1002,2.097,2.0945,2.0926,2.0886,2.0889,2.0869,2.0877,2.0875,2.0826,2.0812,2.078,2.0766,2.0773,2.0706,2.0716,2.0736,2.0768,2.0706,2.0679,2.0668,2.0809,2.081,2.0811,2.0811,0,0,2.0926,2.0911,2.0898,2.0888,2.0871,2.0845,2.0806,2.0778,2.0759,2.074,2.0706,2.0662,2.068,2.0663,2.0668,2.0639,2.0575,2.0662,2.0662,2.0645,2.05,2.0483,2.047,2.0586,2.0584,2.0582,2.0501,0,2.0846,2.078,2.079,2.0726,2.0695,2.0719,2.0685,2.067,2.0668,2.0641,2.0637,2.0605,2.0633,2.0623,2.0595,2.0589,2.0546,2.0596,2.0551,2.055,2.0553,2.0456,2.0438,2.0362,2.0491,2.0489,2.0488,0,2.0743,2.0723,2.0656,2.0646,2.0633,2.0603,2.0578,2.0553,2.0536,2.0537,2.0519,2.0531,2.049,2.0527,2.0471,2.0504,2.0488,2.0482,2.0479,2.0472,2.0512,2.0444,2.0338,2.0325,2.0471,2.0473,2.0474,0,2.0668,2.0625,2.0579,2.057,2.0556,2.0534,2.0527,2.0514,2.0496,2.0475,2.0463,2.0437,2.0421,2.0399,2.0403,2.0429,2.0345,2.0382,2.0342,2.0342,2.032,2.0321,2.0207,2.0314,2.0315,2.0315,2.0315,0,2.0576,2.0534,2.0545,2.0517,2.047,2.0483,2.0435,2.0431,2.0419,2.039,2.0409,2.038,2.0388,2.036,2.0362,2.0315,2.0308,2.0306,2.0306,2.0302,2.0302,2.0288,2.0292,2.0312,2.0312,2.0313,2.0313,0,2.0482,2.0489,2.044,2.0434,2.0431,2.0396,2.039,2.0362,2.0364,2.0325,2.0317,2.0317,2.0285,2.0288,2.025,2.0253,2.0193,2.0201,2.0199,2.0199,2.0158,2.0161,2.0029,2.0011,2.0133,2.0132,2.0131,0,2.0421,2.039,2.0381,2.0364,2.0356,2.0327,2.0311,2.0323,2.0304,2.0285,2.026,2.023,2.0206,2.0153,2.0148,2.012,2.0126,2.0082,2.0121,2.0119,2.0122,2.0123,2.0119,2.0073,2.0071,2.007,2.0069,0,2.0312,2.0318,2.0294,2.0272,2.0253,2.0235,2.0219,2.0204,2.0214,2.0192,2.0161,2.0142,2.0106,2.0075,2.0049,2.0041,2.0055,2.0058,2.0047,2.004,2.0039,2.0037,2.0174,2.006,2.0061,2.0061,2.0062,2.0062,2.0232,2.0205,2.0195,2.0168,2.0158,2.0144,2.0118,2.0117,2.0092,2.0064,2.0073,2.0037,2.0023,1.999,1.9979,1.995,1.9966,1.995,1.9945,1.994,1.9935,2.0047,1.9946,1.9946,1.9946,1.9946,1.9947,0,2.0122,2.0117,2.0093,2.0072,2.0051,2.0071,2.0055,2.0035,2.0004,1.9991,1.9969,1.9932,1.9904,1.9899,1.9871,1.9848,1.9854,1.984,1.984,1.9838,1.9923,1.9935,1.9836,1.9836,1.9836,1.9836,1.9836,1.9836,2.0062,2.0017,2.0022,1.9973,1.9968,1.9935,1.9924,1.991,1.99,1.986,1.9837,1.9835,1.9825,1.9797,1.9771,1.977,1.9758,1.974,1.9742,1.9821,1.9832,1.9842,1.9853,1.9738,1.9738,1.9658,1.9658,1.9657]}]]